Location: ??????????
(54.8537°N, 38.8755°E)
Time: 17:09:48
(UTC+00:00)

S-56A Canister/Altair - Pass Details

Date: 19 September 2024
Orbit: 636 x 2487 km, 38.9° (Epoch: 09 October)

Event Time Altitude Azimuth Distance (km) Brightness Sun altitude
Rises 17:21:03 0° 243° (WSW) 3,353 11.4 -16.2°
Reaches altitude 10° 17:23:51 10° 226° (SW) 2,622 10.5 -16.5°
Maximum altitude 17:28:25 21° 179° (S) 2,271 9.6 -17.1°
Enters shadow 17:31:08 18° 153° (SSE) 2,680 9.8 -17.5°
